Weather History for Cut Bank, MT

Change the Weather History Date:

Wednesday, January 1, 2014

  Actual Average Record
Temperature  
Mean Temperature 30 °F 21 °F  
Max Temperature 41 °F 32 °F 56 °F (1964)
Min Temperature 18 °F 11 °F -38 °F (1924)
Degree Days  
Heating Degree Days 35 44  
Month to date heating degree days 35 44  
Since 1 July heating degree days 3564 3634  
Cooling Degree Days 0 0  
Month to date cooling degree days 0 0  
Year to date cooling degree days 0 0  
Moisture  
Dew Point 20 °F    
Average Humidity 70    
Maximum Humidity 100    
Minimum Humidity 40    
Precipitation  
Precipitation 0.00 in 0.01 in 0.18 in (1991)
Month to date precipitation 0.00 0.01  
Year to date precipitation 0.00 0.01  
Snow  
Snow 0.00 in - - ()
Snow Depth 0.00 in    
Sea Level Pressure  
Sea Level Pressure 30.27 in    
Wind  
Wind Speed 10 mph (WSW)    
Max Wind Speed 22 mph    
Max Gust Speed 25 mph    
Visibility 10 miles    
Events      
T = Trace of Precipitation, MM = Missing Value Source: NWS Daily Summary

Daily Weather History Graph

Daily Weather History Graph

Search for Another Location

Airport:

Trip Planner

Search our weather history database for the weather conditions in past years. The results will help you decide how hot, cold, wet, or windy it might be!

Date:

Astronomy

Jan. 01, 2014 Rise Set
Actual Time 8:21 AM MST 4:44 PM MST
Civil Twilight 7:45 AM MST 5:21 PM MST
Nautical Twilight 7:05 AM MST 6:01 PM MST
Astronomical Twilight 6:26 AM MST 6:39 PM MST
Moon 8:09 AM MST (1/1) 5:41 PM MST (1/1)
Length of Visible Light 9h 36m
Length of Day
8h 22m
New Moon, 0% of the Moon is Illuminated
Jan 1
New Moon
Jan 7
First Quarter
Jan 15
Full
Jan 23
Last Quarter
Jan 30
New

Hourly Weather History & Observations

Time (MST) Temp. Windchill Dew Point Humidity Pressure Visibility Wind Dir Wind Speed Gust Speed Precip Events Conditions
12:56 AM 25.0 °F 18.1 °F 21.0 °F 85% 30.22 in 10.0 mi North 5.8 mph - N/A   Overcast
1:56 AM 24.1 °F 17.0 °F 21.0 °F 88% 30.25 in 10.0 mi WSW 5.8 mph - N/A   Overcast
2:56 AM 26.1 °F 19.4 °F 21.9 °F 84% 30.26 in 10.0 mi West 5.8 mph - N/A   Overcast
3:56 AM 26.1 °F 18.4 °F 23.0 °F 88% 30.28 in 10.0 mi WSW 6.9 mph - N/A   Overcast
4:56 AM 25.0 °F 18.1 °F 21.9 °F 88% 30.31 in 10.0 mi WNW 5.8 mph - N/A   Overcast
5:56 AM 23.0 °F 17.0 °F 21.0 °F 92% 30.33 in 10.0 mi WSW 4.6 mph - N/A   Clear
6:56 AM 21.0 °F - 18.0 °F 88% 30.35 in 10.0 mi Calm Calm - N/A   Clear
7:56 AM 19.9 °F - 19.0 °F 96% 30.35 in 7.0 mi Calm Calm - N/A   Clear
8:56 AM 19.9 °F 13.4 °F 19.0 °F 96% 30.36 in 10.0 mi South 4.6 mph - N/A   Clear
9:56 AM 23.0 °F - 21.0 °F 92% 30.36 in 10.0 mi Calm Calm - N/A   Clear
10:56 AM 27.0 °F 23.0 °F 23.0 °F 85% 30.35 in 10.0 mi ESE 3.5 mph - N/A   Clear
11:56 AM 34.0 °F 29.8 °F 24.1 °F 67% 30.30 in 10.0 mi SSW 4.6 mph - N/A   Clear
12:56 PM 39.9 °F 30.8 °F 18.0 °F 41% 30.26 in 10.0 mi West 18.4 mph - N/A   Clear
1:56 PM 39.9 °F 30.8 °F 18.0 °F 41% 30.25 in 10.0 mi West 18.4 mph - N/A   Clear
2:56 PM 39.0 °F 29.9 °F 18.0 °F 43% 30.23 in 10.0 mi West 17.3 mph - N/A   Clear
3:56 PM 35.1 °F 25.9 °F 19.0 °F 52% 30.25 in 10.0 mi WSW 13.8 mph - N/A   Clear
4:56 PM 32.0 °F 22.1 °F 19.0 °F 59% 30.27 in 10.0 mi West 13.8 mph - N/A   Clear
5:56 PM 32.0 °F 20.8 °F 19.0 °F 59% 30.25 in 10.0 mi West 17.3 mph - N/A   Clear
6:56 PM 32.0 °F 22.1 °F 19.9 °F 61% 30.25 in 10.0 mi West 13.8 mph - N/A   Mostly Cloudy
7:56 PM 32.0 °F 20.8 °F 19.9 °F 61% 30.24 in 10.0 mi West 17.3 mph - N/A   Partly Cloudy
8:56 PM 33.1 °F 22.2 °F 19.9 °F 59% 30.22 in 10.0 mi West 17.3 mph - N/A   Clear
9:56 PM 33.1 °F 22.2 °F 19.9 °F 59% 30.20 in 10.0 mi West 17.3 mph - N/A   Clear
10:56 PM 30.9 °F 22.2 °F 19.9 °F 64% 30.19 in 10.0 mi West 10.4 mph - N/A   Clear
11:56 PM 34.0 °F 22.7 °F 19.9 °F 56% 30.15 in 10.0 mi WSW 19.6 mph - N/A   Clear